Location: Alma
(34.4195°N, 97.6123°W)
Time: 07:07:04
(UTC+00:00)

Hubble Space Telescope - Pass Details

Date: 30 May 2024
Orbit: 511 x 514 km, 28.5° (Epoch: 13 June)

Event Time Altitude Azimuth Distance (km) Brightness Sun altitude
Rises 02:43:41 0° 253° (WSW) 2,611 4.8 -12.5°
Reaches altitude 10° 02:46:03 10° 244° (WSW) 1,725 3.7 -12.9°
Maximum altitude 02:49:41 34° 179° (S) 847 1.4 -13.5°
Enters shadow 02:51:20 24° 133° (SE) 1,087 1.7 -13.8°
